Content
SEND FEEDBACK

Daily
Averages
Monthly
Summary
United States of America

BEAR RIVER BAY, UTAH


Home > North America > United States > Utah
Elevation: 4208 feet     Latitude: 41 18N     Longitude: 112 16W

WEATHER
 
SELECT A DAY
Number of Records: 174,197;   Date Range: 1/1/95 - 9/20/14
 
SHARE

PRINT THIS DATA

[ ← Previous Day ]
WEATHER ALMANAC - JANUARY 31, 2013
[ Next Day → ]
[ °C ]   °F
Weather ElementAverageHighLow
Temperature35.9 °F41 °F (4:53 pm)30 °F (5:53 am)
Dewpoint27.6 °F30 °F (8:53 pm)24.1 °F (5:53 am)
Humidity72.4 %85 % (8:53 pm)57 % (4:53 pm)
Barometer30.31 in30.37 in (10:53 am)30.26 in (1:53 am)
Wind Speed4.3 mph8.1 mph (1:53 am)
Weather ElementAverage
Visibility9.7 mi
Wind DirectionSSE (145.7 °)

Weather ElementTotal
Precipitation---
Heating Degree Days29.5 (Base 65)
Averaged from 23 records on January 31, 2013
WEATHER CONDITIONS BREAKOUT
WIND DIRECTION BREAKOUT
WEATHER BY HOUR - JANUARY 31, 2013
[ °C ]   °F
Local TimeTemperatureDewpointHumidityBarometerVisibilityWind DirectionWind SpeedGust SpeedPrecipitationEventsConditions
1:53 AM36.0 °F27.0 °F70 %30.26 in10.0 miWSW (240°)8.1 mphOvercast
2:53 AM33.1 °F28.0 °F82 %30.28 in10.0 miSouth (170°)6.9 mphOvercast
3:53 AM34.0 °F28.0 °F79 %30.28 in10.0 miSSE (160°)4.6 mphOvercast
4:53 AM32.0 °F26.1 °F79 %30.30 in10.0 miSouth (170°)5.8 mphOvercast
5:53 AM30.0 °F24.1 °F79 %30.32 in10.0 miSSE (160°)4.6 mphMostly Cloudy
6:53 AM30.0 °F24.1 °F79 %30.33 in10.0 miSouth (170°)6.9 mphMostly Cloudy
7:53 AM34.0 °F26.1 °F73 %30.32 in10.0 miSSE (150°)5.8 mphOvercast
8:53 AM35.1 °F28.0 °F76 %30.34 in10.0 miSSE (160°)6.9 mphOvercast
9:53 AM36.0 °F28.0 °F73 %30.35 in10.0 miSSW (200°)6.9 mphMostly Cloudy
10:53 AM36.0 °F28.9 °F76 %30.37 in10.0 miNNW (330°)4.6 mphOvercast
11:53 AM37.9 °F28.0 °F68 %30.36 in10.0 miSSW (210°)6.9 mphOvercast
12:53 PM39.9 °F27.0 °F60 %30.32 in10.0 miSouth (190°)6.9 mphPartly Cloudy
1:53 PM39.9 °F27.0 °F60 %30.31 in10.0 miSouth (190°)4.6 mphOvercast
2:53 PM39.9 °F26.1 °F58 %30.30 in10.0 miSW (230°)5.8 mphMostly Cloudy
3:53 PM39.9 °F28.0 °F63 %30.31 in10.0 miCalmOvercast
4:53 PM41.0 °F27.0 °F57 %30.30 in10.0 miCalmOvercast
5:53 PM39.0 °F28.0 °F65 %30.30 in10.0 miCalmOvercast
6:53 PM37.0 °F28.9 °F73 %30.31 in10.0 miCalmOvercast
7:53 PM37.0 °F28.9 °F73 %30.29 in10.0 miCalmOvercast
8:53 PM34.0 °F30.0 °F85 %30.30 in6.0 miWNW (300°)3.5 mphOvercast
9:53 PM34.0 °F28.0 °F79 %30.30 in8.0 miCalmOvercast
10:53 PM35.1 °F30.0 °F82 %30.29 in10.0 miSSE (160°)4.6 mphOvercast
11:53 PM36.0 °F28.9 °F76 %30.27 in10.0 miSSE (160°)5.8 mphOvercast
Hourly data recorded from KOGD, located miles away from Bear River Bay, Utah







STORIES FROM OUR PARTNERS